Regional Weather Roundup
Issued by NWS

Home | Current Version | Previous Version | Graphics & Text | Print | Product List | Glossary On
Versions: 1 2 3 4 5 6 7 8 9 10 11 12 13 14 15 16 17 18 19 20 21 22 23 24 25 26 27 28 29 30 31 32 33 34 35 36 37 38 39 40 41 42 43 44 45 46 47 48 49 50
000
ASUS43 KLMK 282202
RWRKY
KENTUCKY REGIONAL WEATHER ROUNDUP
NATIONAL WEATHER SERVICE LOUISVILLE KY
600 PM EDT MON JUL 28 2014

NOTE "FAIR" INDICATES FEW OR NO CLOUDS BELOW 12,000 FEET
WITH NO SIGNIFICANT WEATHER AND/OR OBSTRUCTIONS TO VISIBILITY.

KYZ001>023-026-027-061>063-070>075-282300-
WESTERN AND SOUTH CENTRAL KENTUCKY

CITY           SKY/WX    TMP DP  RH WIND       PRES   REMARKS
PADUCAH        PTSUNNY   82  62  50 NW12      30.02F
HENDERSON      MOSUNNY   75  57  53 NW9       30.02S
OWENSBORO      MOSUNNY   77  60  55 NW12      30.02S
HOPKINSVILLE   MOSUNNY   80  58  47 NW10      30.01S
BOWLING GREEN  MOSUNNY   79  56  45 N8G20     30.00S
GLASGOW        PTSUNNY   78  58  48 NW8       29.99S
$$

KYZ024-025-028>034-038-045-046-053-282300-
NORTH CENTRAL KENTUCKY

CITY           SKY/WX    TMP DP  RH WIND       PRES   REMARKS
LOUISVILLE/SDF PTSUNNY   77  59  53 N13       29.99S
LOUISVILLE/LOU PTSUNNY   76  59  55 N9        30.00S
FORT KNOX      PTSUNNY   78  63  59 NW7       29.99S
$$

KYZ035>037-039>044-047>052-055>060-089>105-282300-
NORTHEAST KENTUCKY

CITY           SKY/WX    TMP DP  RH WIND       PRES   REMARKS
LEXINGTON      CLOUDY    74  59  59 NW15      30.00F
COVINGTON      MOSUNNY   73  57  57 NW14      29.98S
FRANKFORT      CLOUDY    72  59  63 NW13G18   30.00S
$$

KYZ054-064>069-076>088-106>120-282300-
SOUTHEAST KENTUCKY

CITY           SKY/WX    TMP DP  RH WIND       PRES   REMARKS
JACKSON        CLOUDY    70  57  63 VRB5      29.99S
LONDON         CLOUDY    76  59  55 NW10      29.99S
SOMERSET       PTSUNNY   73  59  60 N12       30.00R
MIDDLESBORO    CLOUDY    76  60  57 NW10      29.97F
MONTICELLO     PTCLDY    76  62  61 NW7       30.01R
$$




USA.gov is the U.S. government's official web portal to all federal, state and local government web resources and services.